CAPE
2 1 2 1 1 2 1 1 2 1 1 2 1 2 2 1 0 1 0 0 0 1 2 1 0 0 0 0 0 0 0 0 0 0 0 0 0 0 0 0 0 0 0 0 0 0 0
2 1 2 1 2 3 2 1 1 2 1 4 2 5 2 4 1 1 0 0 0 0 1 1 0 0 0 0 0 0 0 0 0 0 0 0 0 0 0 0 0 0 0 0 0 0 0
1 0 0 2 3 5 2 2 1 1 1 3 4 7 3 4 3 1 0 0 0 1 1 0 0 0 0 0 0 0 0 0 0 0 0 0 0 0 0 0 0 0 0 0 0 0 0
4 2 1 2 5 5 1 3 1 1 1 2 2 4 6 2 1 1 0 0 2 2 0 0 0 0 0 0 0 0 0 0 0 0 0 0 0 0 0 0 0 0 0 0 0 0 0
1 3 6 6 7 5 1 1 1 1 1 2 3 7 4 2 1 0 0 0 1 0 0 0 0 0 0 0 0 0 0 0 0 0 0 0 0 0 0 0 0 0 0 0 0 0 0
2 5 6 7 5 0 1 1 1 1 1 6 6 9 9 1 1 0 0 0 0 0 0 0 0 0 0 0 0 0 0 0 0 0 0 0 0 0 0 0 0 0 0 0 0 0 0
2 3 3 4 2 0 0 1 2 1 2 7 9 9 8 1 1 0 0 0 0 0 0 0 0 0 0 0 0 0 0 0 0 0 0 0 0 0 0 0 0 0 0 0 0 0 0
1 1 1 3 3 2 1 1 2 1 4 7 8 9 5 3 0 0 0 0 0 0 0 0 0 0 0 0 0 0 0 0 0 0 0 0 0 0 0 0 0 0 0 0 0 0 0
0 0 0 2 3 1 1 1 1 2 4 5 9 8 4 1 0 0 0 0 0 0 0 0 0 0 0 0 0 0 0 0 0 0 0 0 0 0 0 0 0 0 0 0 0 0 0
0 0 0 1 1 3 0 1 1 2 4 4 9 8 2 0 0 0 0 0 0 0 0 0 0 0 0 0 0 0 0 0 0 0 0 0 0 0 0 0 0 0 0 0 0 0 0
0 0 0 0 1 1 4 0 1 1 3 5 10 9 3 0 0 0 0 0 0 0 0 0 0 0 0 0 0 0 0 0 0 0 0 0 0 0 0 0 0 0 0 0 0 0 0
0 0 0 0 1 1 4 0 0 0 2 4 7 6 3 0 0 0 0 0 0 0 0 0 0 0 0 0 0 0 0 0 0 0 0 0 0 0 0 0 0 0 0 0 0 0 23
0 0 0 0 0 0 2 0 2 0 2 2 0 0 1 0 0 0 0 0 0 0 0 0 0 0 0 0 0 0 0 0 0 0 0 0 0 0 0 0 0 0 0 0 5 15 21
0 0 0 0 0 0 2 3 0 0 1 0 0 0 0 0 0 0 0 0 0 0 0 0 0 0 0 0 0 0 0 0 0 0 0 0 0 0 0 0 0 0 0 0 0 0 1
0 0 0 0 0 0 1 3 0 0 1 0 0 0 0 0 0 0 0 0 0 0 0 0 0 0 0 0 0 0 0 0 0 0 0 0 0 0 0 0 0 0 0 0 0 0 24
0 0 0 0 0 0 1 3 0 1 1 0 0 0 0 0 0 0 0 0 0 0 0 0 0 0 0 0 0 0 0 0 0 0 0 0 0 0 0 0 0 0 0 10 3 52 37
0 0 0 0 0 0 2 4 0 1 0 0 0 0 0 0 0 0 0 0 0 0 0 0 0 0 0 0 0 0 0 0 0 0 0 0 0 0 0 1 0 0 0 0 0 0 34
0 0 0 0 0 0 2 3 0 0 0 0 0 0 0 0 0 0 0 0 0 0 0 0 0 0 0 0 0 0 0 0 0 0 0 0 0 5 0 0 0 0 0 0 0 0 0
0 0 0 0 0 0 1 2 0 0 0 2 0 0 0 0 0 0 0 0 0 0 0 0 0 0 0 0 0 0 0 0 0 0 0 0 0 24 1 0 0 0 0 0 0 0 0
0 0 1 0 0 0 1 1 0 0 0 0 0 0 0 0 0 0 0 0 0 0 0 0 0 0 0 0 0 9 0 0 0 0 0 0 0 31 17 5 0 0 0 0 0 0 0
0 0 1 2 0 0 1 0 0 0 0 0 0 0 0 0 0 0 0 0 0 0 0 0 0 0 6 29 3 4 0 0 0 15 0 0 11 0 0 0 0 0 0 0 0 0 0
0 0 4 6 0 0 3 1 0 0 0 0 0 0 0 0 0 0 0 0 0 0 0 0 0 0 2 43 27 33 3 3 0 0 0 0 17 0 0 0 0 0 0 0 0 0 0
0 0 5 4 1 0 5 3 0 0 0 0 0 0 0 0 0 0 0 0 0 0 0 0 0 3 0 0 0 0 0 0 0 0 0 0 0 0 0 0 0 0 0 0 375 549 255
0 0 7 2 0 0 3 4 2 1 1 2 0 0 0 0 0 0 0 0 0 0 0 0 0 60 0 0 0 0 0 0 0 0 0 0 0 0 0 0 0 0 266 2 571 567 386
0 0 6 1 0 0 3 2 4 3 1 0 0 0 0 0 0 0 0 0 0 0 0 0 0 0 0 0 0 11 0 0 0 0 0 0 0 0 0 0 0 183 559 651 711 440 461
0 1 2 0 0 0 3 1 2 3 1 0 0 0 0 0 0 0 0 0 0 0 0 0 0 0 0 0 0 24 28 0 0 0 0 0 0 0 0 0 0 0 392 20 242 96 678
0 2 0 0 0 0 2 0 2 2 5 1 0 0 0 0 0 0 0 0 0 0 0 0 0 0 0 0 0 1 1 0 0 0 0 0 0 0 0 0 0 0 65 110 127 76 770
0 2 0 0 0 1 1 0 6 2 7 1 0 0 0 0 0 0 0 0 0 0 0 0 0 2 3 25 10 0 0 0 0 0 0 25 0 0 0 0 0 0 48 372 309 343 877
1 0 0 0 0 0 0 0 0 0 5 1 0 0 0 0 0 0 0 0 0 0 0 0 0 0 0 0 0 0 0 0 0 0 0 0 0 13 0 0 0 0 8 43 82 782 678
CIN
-0 -0 -0 -0 -0 -0 -0 -0 -0 -0 -0 -0 -0 -0 -0 -0 -0 -0 -0 -0 -0 -0 -0 -0 -0 -0 -0 -0 -0 -0 -0 -0 -0 -0 -0 -0 -0 -0 -0 -0 -0 -0 -0 -0 -0 -0 -0
-0 -0 -0 -0 -0 -0 -0 -0 -0 -0 -0 -0 -0 -0 -0 -0 -0 -0 -0 -0 -0 -0 -0 -0 -0 -0 -0 -0 -0 -0 -0 -0 -0 -0 -0 -0 -0 -0 -0 -0 -0 -0 -0 -0 -0 -0 -0
-0 -0 -0 -0 -0 -0 -0 -0 -0 -0 -0 -0 -0 -0 -0 -0 -0 -0 -0 -0 -0 -0 -0 -0 -0 -0 -0 -0 -0 -0 -0 -0 -0 -0 -0 -0 -0 -0 -0 -0 -0 -0 -0 -0 -0 -0 -0
-0 -0 -0 -0 -0 -0 -0 -0 -0 -0 -0 -0 -0 -0 -0 -0 -0 -0 -0 -0 -0 -0 -0 -0 -0 -0 -0 -0 -0 -0 -0 -0 -0 -0 -0 -0 -0 -0 -0 -0 -0 -0 -0 -0 -0 -0 -0
-0 -0 -0 -0 -0 -0 -0 -0 -0 -0 -0 -0 -0 -0 -0 -0 -0 -0 -0 -0 -0 -0 -0 -0 -0 -0 -0 -0 -0 -0 -0 -0 -0 -0 -0 -0 -0 -0 -0 -0 -0 -0 -0 -0 -0 -0 -0
-0 -0 -0 -0 -0 -0 -0 -0 -0 -0 -0 -0 -0 -0 -0 -0 -0 -0 -0 -0 -0 -0 -0 -0 -0 -0 -0 -0 -0 -0 -0 -0 -0 -0 -0 -0 -0 -0 -0 -0 -0 -0 -0 -0 -0 -0 -0
-0 -0 -0 -0 -0 -0 -0 -0 -0 -0 -0 -0 -0 -1 -1 -0 -0 -0 -0 -0 -0 -0 -0 -0 -0 -0 -0 -0 -0 -0 -0 -0 -0 -0 -0 -0 -0 -0 -0 -0 -0 -0 -0 -0 -0 -0 -0
-0 -0 -0 -0 -0 -0 -0 -0 -0 -0 -0 -0 -0 -2 -0 -1 -0 -0 -0 -0 -0 -0 -0 -0 -0 -0 -0 -0 -0 -0 -0 -0 -0 -0 -0 -0 -0 -0 -0 -0 -0 -0 -0 -0 -0 -0 -0
-0 -0 -0 -0 -0 -0 -0 -0 -0 -0 -0 -0 -0 -0 -1 -0 -0 -0 -0 -0 -0 -0 -0 -0 -0 -0 -0 -0 -0 -0 -0 -0 -0 -0 -0 -0 -0 -0 -0 -0 -0 -0 -0 -0 -0 -0 -29
-0 -0 -0 -0 -0 -0 -0 -0 -0 -0 -0 -0 -0 -0 -2 -0 -0 -0 -0 -0 -0 -0 -0 -0 -0 -0 -0 -0 -0 -0 -0 -0 -0 -0 -0 -0 -0 -0 -0 -0 -0 -0 -0 -0 -0 -0 -0
-0 -0 -0 -0 -0 -0 -0 -0 -0 -0 -0 -0 -0 -0 -0 -0 -0 -0 -0 -0 -0 -0 -0 -0 -0 -0 -0 -0 -0 -0 -0 -0 -0 -0 -0 -0 -0 -0 -0 -0 -0 -0 -0 -0 -0 -0 -0
-0 -0 -0 -0 -0 -0 -0 -0 -0 -0 -0 -0 -0 -0 -1 -0 -0 -0 -0 -0 -0 -0 -0 -0 -0 -0 -0 -0 -0 -0 -0 -0 -0 -0 -0 -0 -0 -0 -0 -0 -0 -0 -0 -0 -0 -0 -13
-0 -0 -0 -0 -0 -0 -0 -0 -0 -0 -0 -0 -2 -1 -0 -0 -0 -0 -0 -0 -0 -0 -0 -0 -0 -0 -0 -0 -0 -0 -0 -0 -0 -0 -0 -0 -0 -0 -0 -0 -0 -0 -0 -0 -25 -15 -13
-0 -0 -0 -0 -0 -0 -0 -0 -0 -0 -0 -0 -0 -0 -0 -0 -0 -0 -0 -0 -0 -0 -0 -0 -0 -0 -0 -0 -0 -0 -0 -0 -0 -0 -0 -0 -0 -0 -0 -0 -0 -0 -0 -0 -0 -0 -1
-0 -0 -0 -0 -0 -0 -0 -0 -0 -0 -0 -0 -0 -0 -0 -0 -0 -0 -0 -0 -0 -0 -0 -0 -0 -0 -0 -0 -0 -0 -0 -0 -0 -0 -0 -0 -0 -0 -0 -0 -0 -0 -0 -0 -0 -0 -48
-0 -0 -0 -0 -0 -0 -0 -0 -0 -0 -0 -0 -0 -0 -0 -0 -0 -0 -0 -0 -0 -0 -0 -0 -0 -0 -0 -0 -0 -0 -0 -0 -0 -0 -0 -0 -0 -0 -0 -0 -0 -0 -0 -2 -1 -12 -11
-0 -0 -0 -0 -0 -0 -0 -0 -0 -0 -0 -0 -0 -0 -0 -0 -0 -0 -0 -0 -0 -0 -0 -0 -0 -0 -0 -0 -0 -0 -0 -0 -0 -0 -0 -0 -0 -0 -0 -4 -0 -0 -0 -0 -0 -0 -24
-0 -0 -0 -0 -0 -0 -0 -0 -0 -0 -0 -0 -0 -0 -0 -0 -0 -0 -0 -0 -0 -0 -0 -0 -0 -0 -0 -0 -0 -0 -0 -0 -0 -0 -0 -0 -0 -29 -0 -0 -0 -0 -0 -0 -1 -1 -0
-0 -0 -0 -0 -0 -0 -0 -0 -1 -0 -0 -0 -0 -0 -0 -0 -0 -0 -0 -0 -0 -0 -0 -0 -0 -0 -0 -0 -0 -0 -0 -0 -0 -0 -0 -0 -5 -20 -3 -0 -0 -0 -0 -0 -0 -0 -0
-0 -0 -0 -0 -0 -0 -0 -0 -0 -0 -0 -0 -0 -0 -0 -0 -0 -0 -0 -0 -0 -0 -0 -0 -0 -0 -0 -0 -0 -56 -0 -0 -0 -0 -0 -0 -0 -26 -8 -5 -0 -0 -0 -0 -0 -0 -0
-0 -0 -0 -1 -0 -0 -0 -0 -0 -0 -0 -0 -0 -0 -0 -0 -0 -0 -0 -0 -0 -0 -0 -0 -0 -23 -107 -108 -121 -34 -0 -0 -0 -482 -0 -0 -74 -0 -0 -0 -0 -0 -0 -0 -0 -0 -0
-0 -0 -2 -3 -0 -0 -0 -0 -0 -0 -0 -0 -0 -0 -0 -0 -0 -0 -0 -0 -0 -0 -0 -0 -0 -0 -210 -171 -171 -137 -180 -26 -0 -0 -0 -0 -44 -0 -0 -0 -0 -0 -0 -0 -1 -0 -0
-0 -0 -5 -5 -3 -0 -0 -0 -0 -3 -0 -0 -0 -0 -0 -0 -0 -0 -0 -0 -0 -0 -0 -0 -0 -57 -0 -0 -0 -0 -0 -0 -0 -0 -0 -0 -0 -5 -0 -0 -0 -0 -0 -0 -86 -103 -101
-0 -0 -5 -6 -0 -0 -0 -0 -0 -2 -1 -0 -0 -0 -0 -0 -0 -0 -0 -0 -0 -0 -0 -0 -0 -219 -0 -0 -0 -0 -0 -0 -0 -0 -0 -0 -0 -0 -0 -0 -0 -0 -84 -74 -42 -91 -143
-0 -0 -7 -3 -0 -0 -0 -0 -0 -1 -3 -0 -0 -0 -0 -0 -0 -0 -0 -0 -0 -0 -0 -0 -0 -0 -0 -0 -0 -87 -4 -0 -0 -0 -0 -0 -0 -0 -0 -0 -0 -103 -95 -55 -30 -28 -118
-0 -0 -9 -0 -0 -0 -0 -0 -0 -1 -3 -0 -0 -0 -0 -0 -0 -0 -0 -0 -0 -0 -0 -0 -0 -0 -0 -0 -0 -69 -25 -0 -0 -0 -0 -0 -0 -0 -0 -0 -0 -0 -73 -154 -86 -20 -94
-0 -2 -3 -0 -0 -0 -0 -0 -0 -0 -2 -0 -0 -0 -0 -0 -0 -0 -0 -0 -0 -0 -0 -0 -0 -0 -0 -0 -0 -81 -31 -0 -0 -0 -0 -0 -0 -0 -0 -0 -0 -0 -162 -135 -18 -13 -116
-0 -0 -0 -0 -0 -0 -0 -0 -0 -0 -0 -0 -0 -0 -0 -0 -0 -0 -0 -0 -0 -0 -0 -0 -0 -51 -149 -154 -79 -0 -0 -0 -0 -0 -0 -28 -0 -0 -0 -0 -0 -0 -186 -41 -89 -207 -109
-0 -0 -0 -0 -0 -0 -0 -0 -0 -0 -0 -0 -0 -0 -0 -0 -0 -0 -0 -0 -0 -0 -0 -0 -0 -0 -0 -0 -0 -0 -0 -0 -0 -0 -0 -0 -0 -71 -0 -0 -0 -0 -17 -222 -200 -81 -106
Wind_Speed
17 17 16 16 16 15 15 15 15 16 15 14 15 14 14 14 12 11 11 11 11 12 13 14 14 15 4 1 7 4 3 4 3 3 2 2 3 2 2 4 4 2 6 9 8 8 2
15 15 16 16 15 15 15 16 16 15 16 15 15 14 15 13 12 11 10 10 10 11 13 13 13 13 2 5 3 4 4 3 3 2 2 1 2 1 3 2 3 5 10 13 7 6 4
15 15 15 15 15 16 16 16 17 16 16 15 15 15 15 13 12 11 10 10 10 11 12 11 9 4 2 11 2 6 4 1 2 2 2 2 2 3 3 2 4 6 7 7 3 5 3
15 15 16 16 16 16 17 16 17 17 16 16 16 15 15 14 12 11 10 10 11 11 10 8 6 2 8 2 5 8 3 3 2 1 1 1 1 4 2 3 3 3 2 6 2 7 3
15 16 16 17 17 17 18 17 17 17 17 17 16 15 16 15 12 10 10 10 12 10 7 4 2 2 7 8 3 1 3 3 2 3 2 5 2 4 1 2 1 6 4 5 8 5 2
16 17 17 18 18 19 18 18 18 18 18 16 16 15 14 14 11 9 9 12 2 2 3 3 3 3 5 2 2 1 1 3 2 4 3 0 4 2 2 1 3 4 5 6 6 3 5
16 17 18 19 20 20 19 19 18 19 19 17 17 15 13 13 9 7 5 4 4 3 3 6 2 3 2 7 3 2 3 5 2 4 4 3 2 2 3 2 2 3 5 9 6 3 0
16 16 17 18 20 20 20 19 18 19 18 17 18 15 14 10 7 4 2 3 1 3 4 7 5 7 5 3 1 2 5 6 2 3 2 4 7 3 3 4 3 3 8 7 7 2 2
15 16 17 17 19 22 21 21 20 19 18 18 17 16 11 10 4 2 2 3 2 1 2 1 4 5 2 7 4 9 9 4 3 4 2 5 3 4 4 1 4 5 6 4 6 3 4
15 15 16 17 18 18 22 21 21 19 19 19 17 15 9 7 3 1 4 1 5 4 2 2 3 2 5 3 3 2 5 4 2 5 4 2 1 4 3 5 6 4 9 8 6 2 2
14 15 16 18 18 19 20 22 22 21 20 18 18 14 9 4 2 4 3 6 5 4 2 3 4 1 1 3 7 4 1 3 6 6 5 3 4 6 6 5 8 2 1 1 1 2 4
15 16 17 18 19 19 20 23 22 22 21 20 19 16 5 3 3 5 5 2 3 3 3 4 4 6 6 1 2 3 3 4 2 3 1 8 2 5 4 2 7 3 2 1 2 2 2
15 16 17 18 19 20 20 23 22 24 21 21 18 11 7 3 1 3 3 3 3 3 1 6 5 6 7 5 4 4 8 9 6 5 6 2 7 3 4 5 4 4 3 2 3 0 2
14 16 17 18 19 20 21 24 24 25 22 22 18 2 5 4 3 5 3 2 2 0 3 2 4 8 9 7 3 3 8 9 3 3 3 5 7 5 6 6 3 5 6 4 2 2 3
13 14 16 18 19 20 21 23 25 26 25 24 9 2 3 3 10 3 2 2 2 4 1 3 5 7 4 5 3 4 7 10 10 12 5 5 2 1 1 2 3 6 4 3 6 1 4
13 14 15 17 19 20 21 23 26 27 28 23 1 2 2 3 9 2 1 2 4 4 4 1 6 4 8 9 7 7 7 5 7 14 13 2 2 1 4 2 11 4 9 4 1 3 3
12 13 15 16 18 20 21 22 27 26 28 11 2 1 5 3 3 1 3 4 5 6 4 2 2 6 4 7 9 6 6 2 5 6 11 6 3 3 2 4 1 4 4 6 3 3 3
12 13 14 15 17 20 21 21 26 25 28 2 2 3 3 3 2 1 3 4 2 6 6 7 3 4 7 11 8 8 6 3 5 11 12 6 2 0 4 2 3 2 4 1 3 4 1
11 12 13 15 16 19 20 21 24 22 21 5 2 2 2 3 3 3 2 4 5 4 2 1 3 6 4 8 4 6 5 1 9 7 11 10 3 5 3 5 2 3 3 3 4 1 4
10 11 12 14 15 17 19 20 25 23 21 2 2 3 2 1 1 2 1 3 4 3 4 2 3 3 4 4 2 7 6 3 5 4 7 5 4 2 3 3 3 3 2 3 5 4 3
10 10 11 12 14 16 17 19 23 26 20 2 3 2 3 4 4 3 2 3 4 4 2 0 3 2 5 4 3 4 3 5 4 6 4 1 4 2 3 7 3 3 5 6 8 4 7
10 9 11 10 13 15 16 17 23 24 22 1 3 2 1 1 1 3 3 3 3 2 2 1 5 7 7 6 1 7 5 3 2 3 3 2 4 3 4 3 3 5 6 7 5 4 8
9 10 9 9 11 13 14 15 20 19 15 3 2 1 3 2 0 3 2 3 3 4 3 5 3 9 14 5 5 6 5 6 4 3 4 3 7 5 3 2 1 8 8 7 3 3 2
9 10 9 7 10 12 13 13 16 14 10 1 2 2 2 1 2 1 2 3 3 3 1 3 4 3 2 2 4 4 6 7 5 8 5 5 5 1 2 4 7 3 4 6 6 3 5
9 9 8 6 7 10 11 12 14 12 10 1 1 2 2 2 3 2 6 3 2 1 3 4 6 4 4 3 2 4 0 4 4 7 4 1 4 3 4 7 3 2 5 6 6 5 6
9 8 6 5 6 9 9 11 12 11 11 2 2 1 2 3 2 4 4 4 4 3 1 3 3 4 1 4 3 2 3 1 2 3 5 6 5 5 4 5 7 1 7 4 2 7 11
9 8 6 4 5 7 8 10 11 11 11 4 2 1 2 2 1 2 2 3 1 1 1 2 6 4 4 2 3 3 3 1 3 3 3 2 3 6 6 7 3 0 3 6 8 2 11
9 8 5 3 4 5 7 9 11 10 11 6 2 1 3 2 5 4 2 1 0 2 2 4 3 2 2 3 2 2 3 3 2 1 2 3 3 3 3 6 8 2 5 7 3 2 5
9 8 5 3 3 4 6 8 10 9 9 7 1 1 2 4 4 3 7 7 4 4 0 1 3 1 1 3 2 3 3 2 2 3 2 3 2 2 5 2 2 3 4 5 3 4 3
Wind_Direction
10 10 7 4 1 358 356 354 352 349 346 342 339 335 333 330 325 319 314 311 309 310 311 317 322 325 314 222 252 16 197 170 160 184 161 170 68 110 22 331 331 313 336 316 311 276 228
4 6 8 6 2 358 355 350 347 345 344 341 339 333 333 328 322 316 311 306 303 302 306 313 320 316 285 243 117 11 6 186 153 143 116 118 88 126 85 329 334 323 317 306 303 291 195
357 356 353 352 350 350 350 347 347 347 347 343 341 334 333 328 321 312 308 301 297 297 302 307 313 315 232 241 110 322 305 212 155 126 120 130 145 38 335 338 343 325 322 319 326 304 312
356 353 352 349 350 351 354 351 350 349 348 345 342 339 333 327 318 312 305 298 292 293 292 296 303 260 252 238 316 288 192 201 221 244 228 120 149 95 358 317 1 24 20 329 2 332 31
357 354 352 352 350 353 353 352 350 349 347 345 344 336 333 328 317 310 302 295 291 283 276 272 240 263 262 315 252 290 205 151 141 97 88 94 72 57 80 8 10 34 315 340 327 343 153
357 357 354 353 352 353 352 351 349 347 347 341 341 333 331 332 321 314 300 289 251 248 192 201 258 261 249 77 323 91 182 153 93 93 100 61 70 97 101 283 298 326 322 318 290 1 335
358 358 357 353 356 354 351 349 346 346 345 342 338 330 330 333 325 324 333 146 163 163 215 212 187 266 315 314 259 166 160 129 96 67 164 36 202 278 312 257 201 246 285 306 292 299 311
356 355 353 352 356 354 351 347 345 343 342 341 335 331 332 335 322 318 280 207 102 16 282 224 253 279 258 260 126 136 164 165 156 157 156 160 234 226 258 252 245 274 296 285 282 1 295
351 350 348 349 354 355 349 348 343 340 340 339 336 335 344 332 325 241 239 223 67 300 277 243 193 222 216 177 178 174 176 132 141 157 145 198 112 132 266 269 278 243 238 259 266 27 67
344 344 344 344 343 342 350 345 343 338 338 338 334 332 342 329 268 148 233 212 295 226 331 140 198 173 157 205 133 164 181 148 132 175 148 235 99 239 257 258 222 256 214 244 268 242 316
339 340 341 342 341 341 343 344 341 338 337 333 331 325 312 269 335 213 83 327 133 203 145 127 147 70 146 203 132 153 199 115 158 151 187 167 194 203 236 239 187 300 181 262 314 163 206
337 338 339 339 339 341 339 344 340 338 337 334 329 326 282 179 232 259 317 289 230 234 129 149 134 161 157 112 93 98 131 65 90 153 234 258 200 244 239 140 194 112 180 89 149 200 188
334 335 336 336 337 338 339 345 339 339 335 335 329 328 188 182 112 339 283 183 182 228 13 160 163 173 169 155 139 148 166 188 197 179 226 283 246 227 204 237 156 191 229 263 196 358 6
331 331 334 334 335 337 339 346 342 339 335 334 330 299 230 249 304 326 209 188 200 103 228 91 122 134 187 156 154 129 149 186 183 161 147 216 179 192 166 233 213 186 240 234 207 262 3
326 329 332 334 334 335 338 344 343 340 338 334 328 179 248 252 212 280 205 194 245 209 334 140 129 151 151 176 181 168 189 200 201 198 226 191 233 278 336 167 226 142 177 58 115 118 251
323 327 330 333 334 335 338 344 345 342 340 337 276 213 20 42 162 230 174 264 253 235 312 238 215 181 160 174 182 200 179 168 198 196 213 181 274 43 135 152 60 265 133 174 133 215 270
321 324 327 332 334 335 338 344 347 345 339 339 249 121 23 116 196 159 212 249 277 255 242 267 250 179 169 164 197 181 188 182 209 169 191 179 256 120 205 20 92 149 131 63 95 323 262
318 321 325 331 334 335 339 345 349 349 342 22 311 119 65 207 146 17 202 217 292 269 233 256 221 222 180 172 174 204 211 259 169 154 174 176 218 53 91 333 299 43 93 129 267 172 90
314 318 325 330 334 337 339 345 350 352 355 317 32 89 136 291 184 201 250 260 246 265 267 227 240 216 179 169 154 202 188 71 160 160 156 168 209 148 180 154 127 53 56 79 105 120 204
310 315 324 329 334 338 339 344 350 349 349 259 272 132 132 71 350 179 278 266 271 241 263 257 285 165 151 146 40 164 163 132 157 119 85 119 120 239 268 83 107 170 224 204 258 238 245
304 310 317 325 332 337 341 344 350 349 349 264 359 64 1 181 197 205 233 281 286 301 223 269 198 231 157 127 109 136 154 131 101 152 77 181 114 154 133 136 172 198 241 219 233 255 248
299 302 303 321 331 337 342 347 352 349 342 60 358 349 17 321 262 191 169 232 244 272 266 15 112 83 94 90 333 164 146 154 143 127 91 58 128 152 187 176 195 242 240 240 216 225 249
289 292 299 319 331 337 344 349 357 357 350 19 18 196 282 86 133 200 190 277 267 310 87 60 93 93 69 60 64 67 62 60 53 143 106 131 147 161 219 340 244 263 255 210 217 223 268
278 286 290 314 331 338 344 349 357 5 22 300 335 291 300 114 268 342 323 279 303 307 43 24 27 80 92 10 112 69 61 53 52 45 34 124 120 190 258 160 241 16 301 246 251 224 218
267 275 281 307 327 335 341 347 353 353 5 289 288 307 340 304 311 289 339 349 289 38 69 58 31 9 291 136 143 115 82 145 73 43 31 318 147 139 237 234 341 212 203 175 202 212 194
254 263 265 294 324 329 337 343 348 350 358 341 279 287 292 300 145 311 325 353 20 15 109 72 61 315 311 59 66 131 201 121 192 127 60 84 60 237 155 232 231 253 180 169 180 256 180
241 248 242 283 318 323 330 339 344 348 355 340 290 276 262 288 255 289 351 353 10 15 33 337 350 18 356 80 104 195 184 310 226 206 168 124 115 222 204 239 260 286 116 146 203 41 170
229 224 226 264 304 316 323 336 338 349 352 352 295 291 323 294 278 225 275 302 98 15 20 32 223 136 87 123 198 148 210 155 223 297 222 205 195 197 174 213 245 117 136 210 27 75 151
219 198 207 247 283 306 318 331 336 344 350 360 275 26 318 239 294 291 272 272 261 270 234 33 12 88 79 108 165 137 165 177 215 216 217 191 255 327 242 351 27 285 287 318 224 158 136